Tracking 25710 objects as of 5-Jul-2022
HD Live streaming from Space Station
objects crossing your sky now

FENGYUN 1C DEB

Track FENGYUN 1C DEB now!
10-day predictions


NORAD ID: 30625
Int'l Code: 1999-025ANG
Perigee: 804.8 km
Apogee: 923.7 km
Inclination: 98.9 °
Period: 102.1 minutes
Semi major axis: 7235 km
RCS: 0.017 m2 (small)
Launch date: May 10, 1999
Source: People's Republic of China (PRC)
Launch site: Taiyaun Space Center, China (TSC)

Note: This is SATELLITE DEBRIS
aabbcc
Your satellite tracking list
Your tracking list is empty




NASA's NSSDC Master Catalog

Two Line Element Set (TLE):
1 30625U 99025ANG 22185.70883063  .00002514  00000-0  13883-2 0  9991
2 30625  98.9240 109.2867 0082173 317.5050  41.9779 14.10663574788204
Source of the keplerian elements: AFSPC